Weather History for Hastings, NE

Change the Weather History Date:

Friday, November 16, 2012

  Actual Average Record
Temperature  
Mean Temperature 40 °F 38 °F  
Max Temperature 56 °F 49 °F 74 °F (1941)
Min Temperature 24 °F 28 °F 0 °F (1955)
Degree Days  
Heating Degree Days 25 27  
Month to date heating degree days 356 368  
Since 1 July heating degree days 917 861  
Cooling Degree Days 0 0  
Month to date cooling degree days 0 0  
Year to date cooling degree days 1339 1077  
Moisture  
Dew Point 30 °F    
Average Humidity 65    
Maximum Humidity 92    
Minimum Humidity 38    
Precipitation  
Precipitation 0.00 in 0.04 in 3.21 in (1996)
Month to date precipitation 0.65 0.82  
Year to date precipitation 18.77 26.03  
Snow  
Snow 0.00 in 0.10 in 5.00 in (1909)
Month to date snowfall 0.0 1.0  
Since 1 July snowfall T 2.2  
Since 1 September snowfall T 2.2  
Snow Depth 0.00 in    
Sea Level Pressure  
Sea Level Pressure 30.36 in    
Wind  
Wind Speed 7 mph (SSE)    
Max Wind Speed 17 mph    
Max Gust Speed 23 mph    
Visibility 10 miles    
Events      
T = Trace of Precipitation, MM = Missing Value Source: NWS Daily Summary

Daily Weather History Graph

Daily Weather History Graph

Search for Another Location

Airport:

Trip Planner

Search our weather history database for the weather conditions in past years. The results will help you decide how hot, cold, wet, or windy it might be!

Date:

Astronomy

Nov. 16, 2012 Rise Set
Actual Time 7:22 AM CST 5:14 PM CST
Civil Twilight 6:52 AM CST 5:44 PM CST
Nautical Twilight 6:19 AM CST 6:17 PM CST
Astronomical Twilight 5:47 AM CST 6:49 PM CST
Moon 10:18 AM CST (11/16) 8:15 PM CST (11/16)
Length of Visible Light 10h 51m
Length of Day
9h 52m
Waxing Crescent, 12% of the Moon is Illuminated
Nov 16
Waxing Crescent
Nov 20
First Quarter
Nov 28
Full
Dec 6
Last Quarter
Dec 13
New

Hourly Weather History & Observations

Time (CST) Temp. Windchill Dew Point Humidity Pressure Visibility Wind Dir Wind Speed Gust Speed Precip Events Conditions
12:53 AM 30.0 °F - 25.0 °F 82% 30.46 in 10.0 mi Calm Calm - N/A   Clear
1:53 AM 28.9 °F - 25.0 °F 85% 30.46 in 10.0 mi Calm Calm - N/A   Clear
2:53 AM 28.0 °F - 24.1 °F 85% 30.45 in 10.0 mi Calm Calm - N/A   Clear
3:53 AM 24.1 °F - 21.0 °F 88% 30.44 in 10.0 mi Calm Calm - N/A   Clear
4:53 AM 26.1 °F - 23.0 °F 88% 30.44 in 10.0 mi Calm Calm - N/A   Clear
5:53 AM 27.0 °F - 23.0 °F 85% 30.45 in 10.0 mi Calm Calm - N/A   Clear
6:53 AM 30.0 °F - 26.1 °F 85% 30.45 in 10.0 mi Calm Calm - N/A   Clear
7:53 AM 28.9 °F - 27.0 °F 92% 30.46 in 10.0 mi Calm Calm - N/A   Clear
8:53 AM 34.0 °F 28.0 °F 28.9 °F 82% 30.45 in 10.0 mi SSE 6.9 mph - N/A   Clear
9:53 AM 39.0 °F 32.8 °F 32.0 °F 76% 30.45 in 10.0 mi South 9.2 mph - N/A   Clear
10:53 AM 45.0 °F 39.7 °F 33.1 °F 63% 30.42 in 10.0 mi SSE 10.4 mph - N/A   Clear
11:53 AM 50.0 °F - 33.1 °F 52% 30.39 in 10.0 mi SSE 11.5 mph - N/A   Clear
12:53 PM 54.0 °F - 32.0 °F 43% 30.36 in 10.0 mi South 10.4 mph 19.6 mph N/A   Clear
1:53 PM 54.0 °F - 33.1 °F 45% 30.33 in 10.0 mi South 9.2 mph - N/A   Clear
2:53 PM 55.9 °F - 30.0 °F 37% 30.31 in 10.0 mi South 10.4 mph - N/A   Clear
3:53 PM 55.0 °F - 30.9 °F 40% 30.29 in 10.0 mi South 11.5 mph - N/A   Clear
4:53 PM 52.0 °F - 33.1 °F 49% 30.28 in 10.0 mi South 9.2 mph - N/A   Clear
5:53 PM 48.9 °F - 33.1 °F 54% 30.28 in 10.0 mi SSE 9.2 mph - N/A   Clear
6:53 PM 46.0 °F 41.0 °F 33.1 °F 61% 30.28 in 10.0 mi SSE 10.4 mph - N/A   Clear
7:53 PM 43.0 °F 36.8 °F 33.1 °F 68% 30.27 in 10.0 mi SSE 11.5 mph - N/A   Clear
8:53 PM 42.1 °F 36.1 °F 33.1 °F 70% 30.27 in 10.0 mi SSE 10.4 mph - N/A   Clear
9:53 PM 43.0 °F 38.2 °F 33.1 °F 68% 30.26 in 10.0 mi South 8.1 mph - N/A   Clear
10:53 PM 42.1 °F 36.1 °F 32.0 °F 67% 30.25 in 10.0 mi South 10.4 mph - N/A   Clear
11:53 PM 42.1 °F 36.1 °F 32.0 °F 67% 30.25 in 10.0 mi South 10.4 mph - N/A   Clear